Simultaneous Nadir Overpasses (SNOs) Predictions

Prediction of SNOs between GOES-14 and AQUA Satellite Orbit:

Table of predicted SNOs for the next 14.0 days since TLE Epoch: 12/18/2021
Index Date Time (GOES-14) GOES-14 Lat,Lon AQUA Lat,Lon Distance(km) Time Diff (sec)
1 12/19/2021 20:27:17 -0.02,-104.19 0.34,-102.52 189.86 80
2 12/20/2021 08:48:33 0.00,-104.52 0.69,-107.69 360.87 80
3 12/22/2021 08:36:24 0.01,-104.52 0.03,-104.74 25.07 80
4 12/24/2021 08:21:34 0.01,-104.52 -0.57,-101.78 311.01 80
5 12/24/2021 20:42:58 0.01,-104.19 -0.58,-106.97 316.20 80
6 12/26/2021 20:33:28 0.01,-104.19 0.03,-104.01 20.25 80
7 12/28/2021 20:21:18 0.00,-104.19 0.65,-101.05 356.70 80
8 12/29/2021 08:42:36 -0.01,-104.54 0.32,-106.24 192.53 80
9 12/31/2021 08:27:45 -0.01,-104.53 -0.25,-103.27 143.46 80
10 12/31/2021 20:49:09 0.02,-104.19 -0.89,-108.45 485.16 80
